Ana Sayfa
METAR-TAF:

METAR-TAF

Havaalanları :

Midland, Teksas, Amerika Birleşik Devletleri

Enlem: 32-02-11N, Boylam: 102-06-03W, yükseklik: 854 m

Güncel hava durumu gözlemi

Rapor saat 16:35 UTC de 26 dakika önce yapıldı.
Rüzgar doğu/kuzeydoğudan 8 kt
Sıcaklık 4°C
Nem 87%
Basınç 1020 hPa
Görüş mesafesi: 11.3 km
800 ft yükseklikte çok bulutlu
Pus

METAR: KMDD 041635Z AUTO 06008KT 7SM BR OVC008 04/02 A3011 RMK AO2 T00430024

Saat: 12:01 (17:01 UTC)


TAF: eksik

4.000'den fazla havaalanı için hava durumu gözlemleri ve tahminleri (METAR ve TAF raporları).

Kullanılabilir istasyonlar harita üzerinde sarı ve kırmızı noktalarla gösterilir.

İstasyonun adını görmek için fareyi noktanın üzerinde gezdirin.

Sonrasında hava gözlem ve tahminlerini görmek için tıklayın.

Haritayı değiştirmek için: yaklaştırmak için siyah artı işaretli yeşil düğmeye ve uzaklaştırmak için de eksi işaretli düğmeye hızla tıklayın; bitişik haritalar için yeşil okları kullanın.


METAR-TAF: